Home > Weather > Kapfenberg > Past weeks

Flag for Austria Past Weather in Kapfenberg, Styria, Austria — Yesterday and Last 2 Weeks

Now
61 °F

Passing clouds.


Feels Like: 61 °F
Forecast: 51 / 69 °F
Wind: 2 mph from North

Location: Zeltweg

Current Time: Jul 31, 2016 at 5:50:59 AM

Latest Report: Jul 31, 2016 at 4:50 AM


Visibility: 12 mi

Pressure: 30.04 "Hg (28.30 "Hg at 504m altitude)

Humidity: 94%

Dew Point: 59 °F

Location of KapfenbergLocation

Past Weather in Kapfenberg — Graph

°F

Kapfenberg Temperature Yesterday

Maximum temperature yesterday: 82 °F (at 2:50 PM)
Minimum temperature yesterday: 59 °F (at 5:50 AM)
Average temperature yesterday: 70 °F

High & Low Weather Summary for the Past Weeks

 TemperatureHumidityPressure
High82 °F (Jul 20, 2:50 PM)100% (Jul 25, 4:50 AM)30.24 "Hg (Jul 25, 4:50 AM)
Low54 °F (Jul 16, 4:50 AM)32% (Jul 20, 3:50 PM)29.98 "Hg (Jul 30, 2:50 PM)
Average69 °F66%30.11 "Hg
* Reported Jul 15 10:50 PM — Jul 30 10:50 PM, Kapfenberg, Weather by CustomWeather, © 2016

Note: Actual official high and low records may vary slightly from our data, if they occured in-between our weather recording intervals... More about our weather records

Advertising

Kapfenberg Weather History for the Previous 24 Hours

Scroll right to see more
 ConditionsComfort  
Time TempWeatherWind HumidityBarometerVisibility
10:50 PM
Sat, Jul 30
66 °FThunderstorms. Partly cloudy.3 mph88%30.12 "Hg6 mi
9:50 PM66 °FThunderstorms. Partly cloudy.2 mph88%30.07 "Hg6 mi
8:50 PM68 °FThunderstorms. Broken clouds.3 mph78%30.04 "Hg9 mi
7:50 PM70 °FThunderstorms. Scattered clouds.9 mph73%30.04 "Hg12 mi
6:50 PM73 °FScattered clouds.8 mph61%30.01 "Hg12 mi
5:50 PM70 °FThunderstorms. Scattered clouds.15 mph69%30.01 "Hg12 mi
4:50 PM73 °FThunderstorms. Scattered clouds.14 mph57%30.01 "Hg12 mi
3:50 PM82 °FThunderstorms. Scattered clouds.13 mph42%29.98 "Hg12 mi
2:50 PM82 °FPassing clouds.3 mph48%29.98 "Hg19 mi
1:50 PM81 °FPassing clouds.3 mph54%30.01 "Hg19 mi
12:50 PM79 °FPassing clouds.2 mph51%30.04 "Hg19 mi
11:50 AM75 °FPassing clouds.2 mph65%30.07 "Hg19 mi
10:50 AM72 °FPassing clouds.2 mph65%30.07 "Hg19 mi
9:50 AM66 °FPassing clouds.1 mph83%30.09 "Hg19 mi
8:50 AM63 °FPassing clouds.2 mph88%30.09 "Hg12 mi
7:50 AM61 °FPartly sunny.3 mph94%30.09 "Hg6 mi
6:50 AM59 °FBroken clouds.3 mph94%30.09 "Hg12 mi
5:50 AM59 °FPassing clouds.3 mph88%30.09 "Hg12 mi
Weather by CustomWeather, © 2016

See weather overviewHow to use our weather pages